TimeEST,TemperatureF,Dew PointF,Humidity,Sea Level PressureIn,VisibilityMPH,Wind Direction,Wind SpeedMPH,Gust SpeedMPH,PrecipitationIn,Events,Conditions,WindDirDegrees,DateUTC
12:53 AM,46.9,44.1,90,30.14,2.5,Calm,Calm,-,N/A,,Overcast,0,2012-12-03 05:53:00
1:21 AM,46.4,44.6,93,30.15,3.0,Calm,Calm,-,N/A,,Overcast,0,2012-12-03 06:21:00
1:28 AM,46.4,44.6,93,30.15,2.5,NNW,3.5,-,N/A,,Overcast,330,2012-12-03 06:28:00
1:53 AM,46.9,45.0,93,30.15,2.5,Calm,Calm,-,N/A,,Overcast,0,2012-12-03 06:53:00
2:53 AM,46.9,44.1,90,30.16,2.5,Calm,Calm,-,N/A,,Overcast,0,2012-12-03 07:53:00
3:53 AM,46.9,44.1,90,30.17,2.5,Calm,Calm,-,N/A,,Overcast,0,2012-12-03 08:53:00
4:53 AM,46.9,45.0,93,30.17,2.5,Calm,Calm,-,N/A,,Overcast,0,2012-12-03 09:53:00
5:38 AM,44.6,42.8,93,30.17,1.0,Calm,Calm,-,N/A,,Partly Cloudy,0,2012-12-03 10:38:00
5:53 AM,45.0,43.0,93,30.18,1.8,Calm,Calm,-,N/A,,Scattered Clouds,0,2012-12-03 10:53:00
6:10 AM,42.8,42.8,100,30.18,0.5,SE,3.5,-,N/A,Fog,Fog,130,2012-12-03 11:10:00
6:23 AM,41.0,39.2,93,30.18,0.2,Calm,Calm,-,N/A,Fog,Fog,0,2012-12-03 11:23:00
6:53 AM,42.1,41.0,96,30.20,0.5,Calm,Calm,-,N/A,Fog,Fog,0,2012-12-03 11:53:00
7:12 AM,42.8,41.0,93,30.21,0.2,Calm,Calm,-,N/A,Fog,Fog,0,2012-12-03 12:12:00
7:36 AM,39.2,39.2,100,30.22,0.2,Calm,Calm,-,N/A,Fog,Fog,0,2012-12-03 12:36:00
7:53 AM,41.0,39.9,96,30.23,0.5,Calm,Calm,-,N/A,Fog,Fog,0,2012-12-03 12:53:00
8:53 AM,46.9,45.0,93,30.25,1.2,Calm,Calm,-,N/A,,Clear,0,2012-12-03 13:53:00
9:23 AM,48.2,46.4,93,30.24,2.0,Calm,Calm,-,N/A,,Clear,0,2012-12-03 14:23:00
9:53 AM,53.1,46.9,80,30.24,2.5,Calm,Calm,-,N/A,,Haze,0,2012-12-03 14:53:00
10:02 AM,53.6,46.4,77,30.24,3.0,Calm,Calm,-,N/A,,Haze,0,2012-12-03 15:02:00
10:53 AM,59.0,50.0,72,30.23,3.0,West,3.5,-,N/A,,Haze,280,2012-12-03 15:53:00
11:53 AM,61.0,51.1,70,30.21,5.0,Calm,Calm,-,N/A,,Haze,0,2012-12-03 16:53:00
12:53 PM,63.0,51.1,65,30.20,8.0,West,9.2,-,N/A,,Clear,280,2012-12-03 17:53:00
1:53 PM,63.0,50.0,63,30.19,8.0,West,6.9,-,N/A,,Mostly Cloudy,280,2012-12-03 18:53:00
2:53 PM,64.0,51.1,63,30.19,10.0,West,4.6,-,N/A,,Overcast,270,2012-12-03 19:53:00
3:53 PM,62.1,51.1,67,30.20,10.0,West,4.6,-,N/A,,Mostly Cloudy,270,2012-12-03 20:53:00
4:53 PM,60.1,50.0,69,30.20,9.0,Calm,Calm,-,N/A,,Partly Cloudy,0,2012-12-03 21:53:00
5:53 PM,55.9,50.0,80,30.22,8.0,Calm,Calm,-,N/A,,Overcast,0,2012-12-03 22:53:00
6:53 PM,55.9,50.0,80,30.23,6.0,East,3.5,-,N/A,,Haze,100,2012-12-03 23:53:00
7:53 PM,52.0,48.9,89,30.24,5.0,East,3.5,-,N/A,,Overcast,80,2012-12-04 00:53:00
8:53 PM,53.1,48.9,86,30.23,4.0,Calm,Calm,-,N/A,,Overcast,0,2012-12-04 01:53:00
9:53 PM,54.0,50.0,86,30.22,4.0,Calm,Calm,-,N/A,,Overcast,0,2012-12-04 02:53:00
10:53 PM,54.0,50.0,86,30.23,4.0,NE,4.6,-,N/A,,Overcast,40,2012-12-04 03:53:00
11:53 PM,53.1,48.9,86,30.23,4.0,ENE,3.5,-,N/A,,Mostly Cloudy,70,2012-12-04 04:53:00